Regional Weather Roundup
Issued by NWS Jackson, KY

Home | Current Version | Previous Version | Text Only | Print | Product List | Glossary Off
Versions: 1 2 3 4 5 6 7 8 9 10 11 12 13 14 15 16 17 18 19 20 21 22 23 24 25 26 27 28 29 30 31 32 33 34 35 36 37 38 39 40 41 42 43 44 45 46 47 48 49 50

000
ASUS43 KJKL 310411
RWRJKL

EAST KENTUCKY HOURLY WEATHER ROUNDUP
NATIONAL WEATHER SERVICE JACKSON KY
1100 PM EST FRI JAN 30 2015

NOTE: "FAIR" INDICATES FEW OR NO CLOUDS BELOW 12,000 FEET WITH
NO SIGNIFICANT WEATHER AND/OR OBSTRUCTIONS TO VISIBILITY.

* THESE REPORTS ARE NOT UNDER NWS QUALITY CONTROL AND MAY NOT
  REPORT WEATHER SUCH AS PRECIPITATION AND FOG.

KYZ079-080-083-085-087-088-110-112-115-119-120-310500
...EASTERN KENTUCKY...

CITY           SKY/WX    TMP DP  RH WIND       PRES   REMARKS
JACKSON        CLEAR     23  12  62 CALM      30.40F
LONDON         CLEAR     27  13  55 CALM      30.41S
SOMERSET*      CLEAR     25  18  74 CALM      30.45R
MONTICELLO*    CLEAR     20  16  84 CALM      30.46S
MIDDLESBORO*   CLEAR     25  19  80 CALM      30.42S
HARLAN APT*    CLEAR     28  14  54 NE3       30.39S
HAZARD APT*    CLEAR     27  14  59 CALM      30.41S
BLACK MTN*       N/A     14  12  92 N2          N/A
PIKEVILLE APT* CLEAR     21  12  68 NE3       30.40S
BIG SANDY*     CLEAR     22  13  69 NE3       30.42S
MOREHEAD APT*  CLEAR     23  10  58 CALM      30.46S
$$

KYZ035-036-041-042-044-050-067-078-099-310500
...CENTRAL KENTUCKY...

CITY           SKY/WX    TMP DP  RH WIND       PRES   REMARKS
MT STERLING*   CLEAR     23  16  74 CALM      30.46R
FLEMING/MASON* CLEAR     22  12  66 E3        30.46S
DANVILLE*      CLEAR     23  18  80 CALM      30.44S
RICHMOND*      CLEAR     25  16  68 E3        30.43S
LEXINGTON      CLEAR     24  14  65 E5        30.44S WCI  18
FRANKFORT      CLEAR     21  14  74 CALM      30.43S
$$

KYZ091>093-OHZ055-061-077-WVZ005-015-034-035-042-310500
...SOUTHERN OHIO/WEST VIRGINIA...

CITY           SKY/WX    TMP DP  RH WIND       PRES   REMARKS
COVINGTON      CLEAR     23  14  68 CALM      30.43S
COLUMBUS       CLEAR     15   9  76 CALM      30.44S
DAYTON         CLEAR     19  12  74 CALM      30.42F
WILMINGTON     CLEAR     17  13  84 CALM      30.42S
HUNTINGTON     CLEAR     22  11  62 CALM      30.44S
CHARLESTON     CLEAR     21  10  62 NW3       30.43S
PINEVILLE*     CLEAR     19  16  91 MISG      30.42S
BECKLEY        CLEAR     14   7  73 NW6       30.30S WCI   5
BLUEFIELD      CLEAR     18   9  68 W8        30.28S WCI   8
$$

VAZ002-007-008-TNZ017-027-036-066-071-310500
...SOUTHWEST VIRGINIA/EAST TENNESSEE...

CITY           SKY/WX    TMP DP  RH WIND       PRES   REMARKS
WISE*          CLEAR     21  10  63 W3        30.32S
JONESVILLE*    CLEAR     27  10  50 CALM      30.41S
ABINGDON*      CLEAR     27  11  51 NW5       30.35S WCI  22
BRISTOL        CLEAR     26  15  63 CALM      30.38S
KNOXVILLE      CLEAR     31  18  58 CALM      30.40S
OAK RIDGE      CLEAR     31  20  63 CALM      30.42S
CROSSVILLE     CLEAR     28  18  66 CALM      30.38R
NASHVILLE      CLEAR     33  20  58 N7        30.45R WCI  27
$$

...KEY TO REMARKS...
VSB - VISIBILITY IN MILES
WCI - WIND CHILL INDEX
HX  - HEAT INDEX

$$



USA.gov is the U.S. government's official web portal to all federal, state and local government web resources and services.